Home > Weather > Thessaloniki > Past weeks

Flag for Greece Weather for the Past 2 Weeks in Thessaloniki, Greece

Now
68 °F

Passing clouds.


Feels Like: 68 °F
Forecast: 46 / 74 °F
Wind: 9 mph from Northwest

Location: Thessaloniki Airport

Current Time: May 6, 2016 at 12:46:31 PM

Latest Report: May 6, 2016 at 11:20 AM


Visibility: N/A

Pressure: 29.98 "Hg

Humidity: 46%

Dew Point: 46 °F

Location of ThessalonikiLocation

Historic Weather in Thessaloniki — Graph

°F

Thessaloniki Temperature Yesterday

Maximum temperature yesterday: 72 °F (at 2:50 PM)
Minimum temperature yesterday: 54 °F (at 5:50 AM)
Average temperature yesterday: 62 °F

High & Low Weather Summary for the Past Weeks

 TemperatureHumidityPressure
High118 °F (Apr 30, 2:20 AM)100% (May 3, 3:50 AM)30.33 "Hg (May 3, 3:50 AM)
Low39 °F (Apr 27, 5:50 AM)12% (Apr 30, 2:20 AM)29.45 "Hg (Apr 25, 6:20 PM)
Average61 °F62%29.86 "Hg
* Reported Apr 21 11:20 AM — May 6 11:20 AM, Thessaloniki, Weather by CustomWeather, © 2016

Note: Actual official high and low records may vary slightly from our data, if they occured in-between our weather recording intervals... More about our weather records

Advertising

Thessaloniki Weather History for the Previous 24 Hours

Scroll right to see more
 ConditionsComfort  
Time TempWeatherWind HumidityBarometerVisibility
11:20 AM
Fri, May 6
68 °FPassing clouds.9 mph46%29.98 "HgN/A
10:20 AM66 °FPassing clouds.10 mph46%29.98 "HgN/A
9:50 AM64 °FPassing clouds.8 mph52%29.98 "HgN/A
9:20 AM63 °FScattered clouds.10 mph56%29.98 "HgN/A
8:50 AM61 °FScattered clouds.8 mph59%29.98 "HgN/A
8:20 AM61 °FPartly sunny.10 mph59%29.98 "HgN/A
7:50 AM54 °FPartly sunny.2 mph77%29.98 "HgN/A
7:20 AM54 °FScattered clouds.2 mph72%29.98 "HgN/A
6:50 AM59 °FPassing clouds.8 mph63%29.98 "HgN/A
6:20 AM59 °FPassing clouds.9 mph68%29.95 "HgN/A
5:50 AM59 °FPassing clouds.3 mph59%29.95 "HgN/A
5:20 AM57 °FPassing clouds.5 mph67%29.95 "HgN/A
4:50 AM55 °FPassing clouds.No wind72%29.98 "HgN/A
4:20 AM54 °FPassing clouds.No wind77%29.98 "HgN/A
3:50 AM55 °FPassing clouds.5 mph77%29.98 "HgN/A
3:20 AM55 °FPassing clouds.No wind77%29.98 "HgN/A
2:50 AM57 °FPassing clouds.No wind72%29.98 "HgN/A
2:20 AM57 °FPassing clouds.3 mph67%29.98 "HgN/A
1:50 AM55 °FPassing clouds.3 mph72%29.98 "HgN/A
12:50 AM57 °FPassing clouds.No wind72%29.98 "HgN/A
12:20 AM59 °FPassing clouds.3 mph63%29.98 "HgN/A
11:50 PM
Thu, May 5
59 °FPassing clouds.3 mph63%29.95 "HgN/A
10:50 PM57 °FPassing clouds.5 mph67%29.95 "HgN/A
10:20 PM59 °FPassing clouds.5 mph63%29.95 "HgN/A
9:50 PM61 °FPassing clouds.3 mph63%29.92 "HgN/A
9:20 PM63 °FScattered clouds.No wind52%29.92 "HgN/A
8:50 PM64 °FScattered clouds.3 mph73%29.89 "HgN/A
8:20 PM63 °FScattered clouds.3 mph64%29.89 "HgN/A
7:50 PM66 °FScattered clouds.3 mph56%29.89 "HgN/A
6:50 PM66 °FPartly sunny.9 mph43%29.89 "HgN/A
6:20 PM66 °FLight rain. Partly sunny.15 mph46%29.86 "HgN/A
5:50 PM70 °FScattered clouds.14 mph43%29.86 "HgN/A
5:20 PM72 °FScattered clouds.15 mph41%29.86 "HgN/A
4:50 PM72 °FScattered clouds.14 mph44%29.86 "HgN/A
4:20 PM72 °FScattered clouds.12 mph38%29.86 "HgN/A
3:50 PM72 °FScattered clouds.12 mph44%29.89 "HgN/A
3:20 PM72 °FScattered clouds.12 mph36%29.89 "HgN/A
2:50 PM72 °FScattered clouds.12 mph44%29.89 "HgN/A
2:20 PM70 °FScattered clouds.9 mph40%29.89 "HgN/A
1:50 PM68 °FScattered clouds.8 mph38%29.89 "HgN/A
1:20 PM68 °FScattered clouds.9 mph43%29.92 "HgN/A
12:50 PM68 °FScattered clouds.10 mph43%29.92 "HgN/A
12:20 PM66 °FScattered clouds.8 mph43%29.92 "HgN/A
Weather by CustomWeather, © 2016

See weather overviewHow to use our weather pages